Temp
-3 -3 -3 -2 -2 -2 -2 -2 -2 -3 -3 -3 -3 -3 -3 -3 -3 -3 -3 -4 -4 -4 -4 -4 -4 -5 -6 -6 -7 -7 -7 -7 -7 -6 -6 -7 -7 -7 -7 -8 -8 -8 -8 -8 -8
-2 -2 -2 -2 -2 -2 -2 -2 -3 -3 -3 -3 -3 -3 -3 -3 -4 -4 -4 -3 -3 -4 -4 -4 -4 -4 -5 -6 -7 -7 -7 -8 -7 -7 -7 -7 -7 -7 -7 -8 -8 -8 -8 -8 -8
-2 -2 -2 -2 -2 -2 -2 -3 -3 -3 -3 -3 -4 -4 -4 -4 -4 -4 -4 -4 -4 -4 -4 -4 -5 -5 -5 -5 -6 -6 -7 -7 -7 -8 -7 -7 -7 -7 -7 -7 -8 -8 -8 -8 -8
-2 -2 -2 -2 -3 -3 -3 -3 -3 -3 -3 -3 -4 -4 -4 -4 -4 -4 -4 -5 -4 -4 -4 -4 -5 -5 -5 -5 -5 -5 -6 -6 -7 -6 -7 -7 -7 -7 -7 -7 -7 -8 -8 -8 -8
-3 -3 -3 -3 -3 -4 -3 -3 -3 -3 -4 -4 -4 -4 -4 -4 -4 -3 -4 -4 -4 -4 -4 -4 -4 -4 -4 -5 -5 -5 -6 -6 -7 -6 -7 -7 -8 -8 -7 -7 -7 -7 -8 -8 -8
-3 -4 -4 -3 -3 -4 -4 -3 -3 -4 -4 -4 -4 -4 -4 -4 -4 -4 -4 -4 -5 -5 -5 -5 -5 -5 -5 -5 -5 -5 -5 -6 -6 -7 -7 -8 -8 -8 -7 -7 -7 -7 -8 -8 -8
-4 -4 -4 -4 -4 -4 -4 -4 -4 -4 -4 -4 -4 -4 -4 -4 -4 -4 -4 -4 -4 -4 -5 -5 -5 -5 -5 -5 -5 -5 -6 -6 -6 -6 -6 -6 -7 -8 -8 -6 -7 -8 -8 -8 -8
-4 -4 -4 -4 -4 -4 -4 -4 -4 -4 -4 -4 -4 -4 -4 -4 -4 -4 -4 -4 -4 -4 -4 -5 -4 -4 -5 -6 -6 -6 -6 -7 -7 -7 -6 -5 -5 -7 -7 -7 -7 -7 -7 -8 -8
-4 -4 -4 -4 -4 -4 -4 -4 -4 -4 -4 -4 -4 -4 -4 -4 -4 -4 -4 -4 -4 -4 -4 -5 -5 -5 -4 -5 -6 -6 -6 -8 -8 -7 -7 -6 -6 -6 -6 -6 -6 -7 -7 -8 -8
-4 -4 -4 -4 -4 -4 -4 -4 -4 -4 -4 -4 -4 -4 -4 -4 -4 -4 -4 -4 -4 -4 -4 -4 -5 -4 -5 -5 -5 -7 -9 -9 -7 -8 -7 -7 -6 -5 -7 -6 -5 -7 -7 -7 -8
-4 -4 -4 -4 -4 -4 -4 -4 -4 -4 -4 -4 -4 -4 -4 -4 -4 -4 -4 -4 -5 -5 -5 -4 -5 -5 -5 -5 -6 -7 -7 -7 -7 -7 -7 -7 -6 -6 -6 -6 -6 -6 -6 -7 -7
-4 -4 -4 -4 -4 -4 -4 -4 -4 -4 -4 -4 -4 -4 -4 -4 -4 -5 -5 -5 -5 -5 -5 -5 -5 -5 -5 -6 -6 -7 -7 -7 -7 -8 -8 -7 -7 -7 -7 -7 -6 -7 -7 -7 -7
-5 -4 -4 -4 -4 -4 -4 -4 -4 -4 -4 -4 -4 -4 -4 -4 -4 -4 -5 -5 -5 -5 -5 -5 -6 -6 -6 -6 -6 -7 -8 -8 -8 -9 -8 -8 -7 -8 -7 -7 -8 -7 -8 -7 -8
-5 -5 -4 -4 -4 -4 -4 -5 -5 -5 -5 -4 -4 -4 -4 -4 -4 -4 -4 -4 -5 -5 -5 -5 -6 -6 -6 -7 -7 -7 -8 -9 -9 -10 -10 -10 -9 -8 -8 -8 -8 -8 -8 -8 -8
-5 -5 -5 -5 -5 -5 -5 -5 -5 -5 -5 -5 -5 -4 -4 -4 -5 -4 -4 -5 -5 -5 -5 -6 -5 -6 -7 -7 -8 -7 -9 -10 -10 -10 -10 -10 -10 -9 -9 -8 -9 -9 -9 -8 -8
-5 -5 -5 -5 -5 -5 -5 -5 -5 -5 -5 -5 -5 -5 -5 -5 -5 -5 -5 -5 -5 -5 -6 -6 -6 -7 -7 -7 -8 -9 -9 -10 -10 -11 -11 -10 -10 -10 -9 -9 -9 -9 -9 -8 -8
-6 -6 -6 -6 -5 -5 -5 -5 -5 -5 -5 -5 -5 -5 -5 -5 -5 -5 -6 -6 -6 -6 -7 -7 -7 -8 -8 -9 -10 -11 -11 -12 -11 -11 -10 -10 -10 -10 -10 -10 -9 -9 -9 -9 -8
-6 -6 -6 -6 -6 -6 -6 -5 -5 -5 -5 -5 -6 -6 -6 -6 -6 -6 -6 -7 -6 -7 -7 -7 -7 -9 -10 -11 -12 -12 -12 -12 -11 -10 -10 -10 -11 -10 -11 -10 -10 -9 -9 -9 -8
-7 -6 -6 -6 -6 -6 -6 -6 -6 -6 -6 -6 -6 -6 -6 -6 -7 -7 -7 -8 -7 -7 -8 -8 -8 -10 -12 -12 -12 -12 -13 -12 -12 -11 -11 -11 -11 -11 -11 -11 -10 -10 -9 -9 -9
-7 -7 -7 -7 -6 -6 -6 -6 -6 -6 -6 -6 -6 -7 -7 -7 -7 -8 -8 -8 -8 -8 -9 -9 -9 -12 -13 -13 -12 -12 -13 -12 -12 -12 -12 -11 -11 -10 -11 -11 -10 -10 -10 -9 -9
-7 -7 -7 -7 -7 -7 -7 -7 -7 -7 -7 -7 -7 -7 -7 -8 -8 -9 -9 -9 -9 -10 -10 -10 -11 -12 -13 -13 -13 -13 -13 -13 -12 -13 -13 -12 -11 -11 -11 -11 -10 -10 -10 -10 -9
-7 -7 -7 -7 -7 -7 -7 -7 -7 -7 -7 -7 -7 -8 -8 -8 -9 -9 -10 -10 -10 -10 -11 -12 -12 -13 -14 -14 -13 -14 -13 -13 -12 -12 -12 -11 -11 -11 -11 -10 -10 -10 -10 -10 -9
-8 -8 -8 -8 -8 -8 -8 -8 -8 -8 -8 -8 -8 -8 -9 -9 -9 -10 -10 -11 -11 -11 -12 -12 -13 -13 -14 -13 -12 -13 -13 -13 -13 -13 -13 -12 -11 -12 -11 -11 -10 -10 -10 -10 -9
-9 -9 -9 -9 -9 -9 -9 -9 -9 -9 -8 -8 -9 -9 -9 -10 -10 -10 -10 -11 -12 -12 -13 -13 -13 -13 -14 -14 -13 -13 -14 -14 -14 -13 -12 -11 -11 -12 -12 -11 -11 -11 -10 -10 -10
-10 -10 -10 -9 -9 -9 -9 -9 -9 -9 -9 -9 -9 -10 -10 -10 -10 -11 -11 -11 -12 -13 -13 -13 -13 -13 -13 -13 -13 -14 -13 -14 -14 -13 -13 -12 -13 -11 -11 -11 -11 -11 -11 -10 -10
-11 -10 -10 -10 -10 -10 -10 -10 -10 -10 -10 -10 -10 -10 -11 -11 -11 -11 -11 -12 -12 -14 -13 -13 -13 -13 -13 -13 -14 -15 -14 -13 -13 -13 -13 -14 -12 -12 -11 -11 -11 -11 -11 -10 -10
-11 -11 -11 -10 -10 -10 -10 -10 -11 -11 -10 -10 -11 -11 -11 -11 -11 -11 -11 -12 -12 -13 -13 -13 -13 -13 -13 -15 -15 -13 -14 -14 -13 -13 -13 -13 -13 -12 -12 -12 -11 -11 -12 -11 -10
Height
5929 5929 5929 5929 5929 5929 5929 5929 5928 5928 5927 5926 5925 5925 5925 5925 5924 5922 5922 5921 5922 5922 5922 5922 5922 5922 5922 5922 5923 5924 5926 5928 5928 5928 5927 5927 5926 5922 5921 5919 5915 5911 5909 5906 5903
5928 5928 5928 5927 5926 5926 5925 5925 5924 5924 5923 5923 5922 5921 5920 5920 5919 5919 5920 5919 5918 5918 5918 5919 5919 5920 5920 5920 5921 5922 5923 5924 5923 5923 5924 5925 5924 5923 5920 5918 5915 5913 5911 5907 5905
5926 5925 5924 5923 5923 5922 5921 5920 5920 5919 5918 5917 5918 5918 5918 5916 5916 5916 5916 5916 5916 5915 5914 5914 5914 5916 5917 5917 5916 5918 5921 5919 5921 5920 5919 5921 5922 5921 5919 5917 5916 5914 5912 5909 5906
5922 5921 5921 5920 5919 5918 5917 5916 5915 5915 5914 5914 5914 5913 5913 5912 5912 5912 5913 5912 5913 5913 5912 5911 5911 5912 5912 5913 5912 5914 5917 5916 5917 5914 5915 5915 5917 5918 5918 5917 5916 5915 5913 5911 5908
5918 5918 5918 5917 5917 5916 5916 5915 5914 5913 5912 5912 5911 5910 5909 5908 5907 5907 5907 5906 5905 5906 5906 5907 5908 5908 5909 5909 5908 5909 5912 5910 5912 5912 5913 5912 5913 5913 5915 5915 5915 5914 5913 5911 5910
5915 5915 5916 5916 5916 5916 5915 5914 5913 5912 5911 5911 5910 5909 5907 5906 5905 5904 5903 5903 5903 5902 5902 5903 5903 5902 5903 5903 5902 5904 5905 5906 5906 5907 5908 5906 5908 5906 5913 5911 5911 5912 5911 5911 5909
5913 5914 5913 5913 5913 5913 5913 5912 5911 5910 5909 5908 5907 5906 5905 5904 5903 5902 5901 5900 5899 5899 5898 5897 5897 5897 5897 5899 5899 5898 5898 5900 5902 5902 5901 5901 5901 5904 5908 5904 5905 5907 5908 5908 5908
5912 5912 5912 5912 5911 5911 5910 5909 5908 5907 5907 5906 5905 5903 5902 5901 5900 5899 5898 5897 5896 5895 5895 5894 5892 5892 5892 5893 5893 5893 5893 5895 5897 5897 5897 5896 5897 5898 5899 5897 5902 5903 5904 5905 5906
5909 5910 5910 5909 5908 5907 5907 5906 5905 5905 5903 5902 5902 5900 5900 5898 5897 5896 5895 5894 5893 5892 5891 5890 5888 5888 5888 5888 5888 5887 5890 5891 5889 5889 5892 5892 5890 5890 5892 5891 5896 5898 5899 5900 5902
5907 5907 5907 5906 5905 5904 5904 5902 5902 5902 5900 5899 5898 5899 5896 5896 5894 5893 5891 5890 5888 5887 5886 5885 5883 5883 5882 5882 5883 5884 5885 5884 5880 5882 5881 5885 5885 5883 5885 5885 5889 5893 5894 5896 5898
5903 5903 5903 5902 5901 5900 5900 5898 5899 5899 5897 5896 5895 5893 5892 5891 5890 5889 5887 5885 5883 5882 5880 5877 5877 5876 5875 5873 5874 5874 5873 5874 5873 5877 5872 5876 5877 5877 5878 5878 5881 5883 5887 5891 5892
5899 5898 5899 5898 5897 5896 5894 5893 5892 5893 5893 5891 5890 5888 5886 5885 5885 5883 5882 5881 5878 5876 5874 5871 5871 5869 5866 5866 5864 5864 5864 5864 5865 5868 5865 5867 5868 5869 5870 5871 5875 5877 5880 5885 5887
5893 5892 5893 5892 5892 5891 5890 5889 5887 5886 5887 5886 5884 5883 5881 5879 5878 5877 5876 5874 5872 5870 5867 5865 5865 5859 5859 5856 5855 5855 5854 5856 5857 5859 5856 5858 5859 5864 5863 5865 5867 5872 5876 5880 5882
5887 5886 5887 5887 5888 5886 5886 5885 5883 5881 5880 5881 5879 5877 5877 5873 5872 5871 5868 5867 5864 5862 5858 5857 5855 5852 5849 5849 5848 5845 5846 5844 5847 5848 5849 5852 5849 5853 5855 5858 5862 5867 5871 5875 5878
5882 5881 5881 5880 5880 5880 5880 5878 5877 5876 5874 5874 5872 5870 5869 5869 5866 5865 5862 5860 5858 5854 5852 5850 5845 5843 5842 5840 5837 5837 5836 5836 5835 5837 5840 5843 5843 5848 5849 5853 5856 5863 5866 5869 5872
5877 5875 5874 5874 5873 5874 5873 5872 5871 5872 5868 5867 5864 5863 5863 5862 5859 5857 5855 5853 5851 5847 5843 5842 5838 5835 5832 5830 5827 5827 5825 5826 5825 5829 5830 5836 5839 5842 5847 5848 5851 5856 5858 5857 5860
5870 5869 5868 5867 5867 5867 5866 5866 5866 5864 5863 5862 5859 5857 5855 5853 5850 5848 5847 5843 5841 5840 5836 5834 5831 5825 5823 5819 5818 5817 5817 5819 5821 5823 5822 5831 5833 5835 5840 5840 5839 5844 5847 5851 5853
5862 5862 5861 5860 5859 5859 5860 5860 5859 5858 5856 5854 5851 5849 5847 5846 5843 5840 5838 5834 5831 5829 5828 5823 5824 5817 5813 5812 5811 5811 5811 5815 5817 5820 5822 5822 5822 5827 5827 5828 5833 5838 5840 5843 5845
5852 5853 5853 5853 5852 5852 5853 5852 5851 5850 5849 5846 5844 5842 5840 5838 5836 5833 5830 5827 5824 5820 5817 5813 5813 5809 5807 5806 5805 5804 5804 5809 5810 5812 5813 5815 5818 5821 5820 5825 5827 5829 5832 5834 5836
5844 5844 5844 5844 5844 5844 5845 5844 5843 5841 5840 5839 5836 5835 5832 5829 5828 5825 5822 5819 5815 5811 5806 5803 5800 5802 5802 5801 5802 5799 5803 5804 5804 5806 5804 5807 5810 5813 5815 5815 5819 5822 5823 5826 5828
5836 5836 5836 5836 5836 5836 5835 5835 5834 5833 5832 5831 5829 5827 5825 5822 5820 5817 5815 5811 5806 5802 5798 5794 5793 5795 5796 5799 5796 5796 5796 5797 5799 5799 5794 5798 5803 5807 5805 5807 5812 5814 5815 5818 5821
5828 5828 5828 5827 5828 5826 5826 5825 5824 5823 5823 5822 5821 5819 5816 5814 5813 5810 5807 5802 5798 5793 5791 5787 5787 5786 5788 5789 5788 5788 5786 5784 5787 5791 5792 5794 5796 5794 5798 5799 5801 5804 5807 5811 5813
5819 5818 5818 5818 5818 5817 5817 5816 5814 5814 5814 5813 5812 5811 5809 5807 5805 5803 5799 5795 5790 5786 5782 5783 5782 5781 5785 5790 5784 5778 5781 5780 5778 5780 5777 5782 5788 5786 5789 5793 5793 5796 5799 5803 5805
5810 5810 5810 5809 5809 5808 5808 5807 5806 5805 5804 5804 5804 5803 5801 5799 5796 5794 5790 5787 5783 5778 5776 5775 5775 5775 5776 5779 5778 5776 5776 5775 5772 5773 5759 5766 5770 5768 5776 5782 5784 5788 5792 5793 5795
5800 5800 5800 5800 5800 5799 5799 5799 5797 5797 5796 5795 5795 5794 5793 5792 5788 5785 5782 5780 5776 5772 5770 5770 5768 5768 5768 5768 5770 5771 5771 5771 5769 5768 5765 5761 5749 5766 5771 5774 5776 5780 5784 5787 5789
5789 5790 5790 5790 5790 5790 5789 5789 5788 5787 5787 5786 5786 5785 5785 5784 5781 5778 5775 5773 5771 5768 5763 5762 5762 5759 5760 5762 5762 5764 5765 5765 5764 5762 5761 5760 5760 5759 5763 5766 5768 5770 5774 5777 5781
5778 5778 5779 5780 5780 5780 5780 5779 5779 5778 5778 5778 5777 5777 5776 5775 5773 5770 5767 5766 5763 5761 5758 5757 5755 5754 5754 5756 5757 5757 5758 5757 5756 5756 5756 5754 5752 5753 5755 5757 5758 5763 5767 5771 5775
Wind_Speed
6 7 8 9 10 11 11 11 10 10 10 10 10 10 10 9 10 12 13 15 13 14 15 16 15 17 19 19 17 16 16 15 17 17 16 14 17 18 14 12 14 18 20 24 28
10 12 13 14 15 15 16 16 17 17 17 16 15 15 16 15 16 16 16 15 16 16 18 17 16 16 19 21 21 19 19 18 22 21 17 17 17 19 14 10 13 16 16 18 23
14 14 15 16 17 18 19 20 20 22 23 23 22 20 20 20 22 20 19 18 18 19 20 20 20 19 19 21 24 24 20 24 21 24 24 20 19 19 16 13 10 11 18 16 18
14 15 16 16 16 16 16 16 16 18 19 19 17 17 18 20 25 25 24 24 23 23 23 24 23 22 21 22 26 25 23 26 25 27 26 26 22 20 17 15 12 9 13 15 16
16 15 13 7 3 4 6 7 7 8 8 8 9 10 12 15 20 21 22 24 25 26 25 25 25 27 27 25 25 25 25 29 27 28 28 29 27 27 19 16 14 11 6 13 17
6 2 2 2 3 5 7 7 9 9 10 10 11 12 12 15 14 14 11 14 18 23 28 29 28 28 26 28 28 27 25 27 28 28 28 34 33 36 22 20 19 15 9 10 15
2 1 3 7 7 8 10 11 11 11 12 13 15 15 16 16 15 16 16 16 16 17 19 21 26 29 29 30 31 32 31 28 27 28 31 30 33 36 28 28 22 21 15 12 13
3 3 7 10 11 12 12 12 12 13 14 14 14 16 16 17 15 16 17 18 17 16 17 20 23 25 28 28 30 33 35 30 26 29 28 30 33 36 35 36 29 20 19 16 14
7 9 10 12 14 15 14 13 13 14 14 15 17 16 15 16 16 17 19 20 21 22 22 21 23 24 27 30 31 33 31 28 33 31 27 32 34 37 34 40 30 24 20 18 16
12 14 15 16 17 17 16 16 16 15 15 15 15 15 14 15 18 20 21 22 23 23 25 26 28 28 30 29 29 31 25 29 37 35 34 30 35 39 36 36 31 27 21 21 18
18 18 17 18 17 18 17 17 18 18 17 18 17 17 16 16 18 20 23 25 25 26 27 29 29 29 29 31 29 34 38 38 41 32 41 34 34 36 38 38 32 28 31 25 19
20 22 20 19 18 18 19 21 23 23 21 19 19 18 20 20 21 23 23 24 24 25 27 31 31 31 34 32 34 35 37 39 38 33 39 39 37 36 36 38 35 28 24 25 21
23 23 21 20 19 19 20 22 24 25 24 21 20 21 22 24 26 28 28 27 26 27 30 32 29 36 33 35 35 36 36 38 38 34 39 39 41 31 36 37 34 26 23 24 24
25 25 25 23 23 22 21 22 24 25 24 23 22 23 23 27 29 30 32 31 32 32 34 36 33 35 34 33 33 38 34 37 35 38 35 30 36 35 37 35 32 25 25 25 29
25 26 26 26 24 23 23 22 22 23 27 25 25 26 27 28 31 32 32 32 35 37 39 37 39 39 37 34 35 36 35 35 38 39 38 33 34 29 31 35 32 24 26 31 32
28 28 26 25 25 23 22 22 24 25 28 27 27 28 29 29 32 33 34 35 36 38 39 38 38 38 41 40 37 32 35 36 38 35 36 32 31 28 22 20 24 24 29 39 38
29 27 26 25 24 23 23 24 27 27 28 28 29 30 31 32 34 34 35 38 38 38 39 37 38 40 36 35 29 24 26 24 26 27 33 25 27 28 19 19 28 34 39 40 43
32 31 29 28 26 26 26 28 28 28 28 29 30 31 33 32 34 35 37 38 41 40 38 41 37 35 26 17 15 22 19 23 25 25 24 27 29 26 23 27 30 32 31 34 42
34 34 34 32 31 31 31 31 30 30 29 30 31 32 33 34 34 35 35 36 39 40 41 40 36 28 20 12 15 14 24 20 25 27 28 26 22 23 31 21 23 29 30 34 39
28 29 32 34 33 33 32 32 32 31 31 30 30 30 33 34 35 34 34 38 37 39 38 38 37 19 15 12 14 10 13 19 23 27 29 23 24 29 26 26 29 28 29 31 30
33 31 30 30 31 32 33 34 33 32 31 30 29 31 32 34 32 32 34 35 37 33 33 35 34 25 14 11 15 13 13 17 23 26 24 27 27 26 34 32 32 37 34 31 29
34 33 33 34 34 34 34 33 32 31 31 30 30 30 33 33 30 33 32 32 33 32 29 32 28 27 19 14 21 14 23 24 16 19 28 32 32 31 30 25 33 42 39 35 32
34 33 32 31 32 32 31 31 31 32 32 30 31 30 31 30 32 31 30 27 28 28 29 24 24 24 13 10 20 12 23 25 28 23 30 32 23 27 27 20 19 30 37 41 43
33 33 32 32 32 33 32 32 32 32 32 31 30 30 29 29 32 30 30 26 23 27 25 25 24 25 24 20 22 18 21 22 25 22 33 10 22 32 30 29 26 18 21 25 35
34 33 33 33 32 32 32 31 32 32 31 31 30 29 28 28 30 29 30 26 22 25 23 23 28 27 25 24 21 20 18 23 23 22 22 24 19 27 26 25 20 26 21 20 30
36 35 34 34 33 34 33 32 32 31 30 30 29 28 27 27 29 27 28 22 21 20 29 27 24 26 28 22 21 23 23 22 25 23 24 26 22 23 22 21 20 18 20 22 23
37 38 37 36 35 35 34 33 31 30 30 30 29 27 27 27 27 27 25 23 24 21 23 24 24 19 19 16 18 23 24 22 23 26 29 29 30 27 28 25 26 23 22 24 24
Wind_Direction
339 334 329 322 317 317 314 311 306 299 294 294 292 287 281 270 269 272 280 282 281 278 270 271 267 259 264 262 266 274 290 302 303 315 314 323 335 352 350 10 12 35 33 26 22
312 309 306 301 300 298 294 290 287 285 280 275 274 275 273 265 258 258 258 264 275 276 275 278 277 273 266 261 263 262 269 279 287 295 301 302 314 336 344 351 1 2 17 24 16
304 300 293 289 286 284 285 286 284 281 279 278 275 269 269 272 269 269 266 263 262 267 268 269 268 267 267 267 261 261 258 256 267 275 286 289 293 313 342 333 338 348 357 0 13
288 287 285 288 294 298 292 290 291 293 295 296 296 291 284 273 272 275 277 278 276 270 270 272 271 268 262 262 265 264 262 261 258 268 270 274 281 286 306 327 308 334 347 341 354
289 289 289 300 17 21 9 3 360 356 350 350 335 324 307 292 285 294 276 269 267 266 267 273 278 280 284 278 268 268 258 259 260 267 275 275 277 276 278 295 318 284 311 327 330
274 224 116 47 350 339 334 324 322 322 329 334 325 321 313 309 328 329 323 300 292 284 281 277 270 266 267 272 277 274 269 266 262 260 261 264 266 272 280 275 286 289 273 301 312
184 196 342 332 327 327 326 321 316 318 323 326 322 312 304 312 314 318 321 318 306 301 297 289 280 276 275 273 276 277 274 270 269 262 264 257 260 266 271 266 265 274 261 272 285
259 282 305 309 312 313 314 308 309 308 307 313 316 308 303 309 314 307 307 306 304 298 295 298 293 290 285 278 273 271 273 274 277 269 260 264 266 267 260 266 269 267 258 245 266
283 287 296 303 303 308 311 303 307 313 313 311 314 311 302 300 301 300 302 303 302 301 301 295 290 291 294 289 282 280 276 273 275 267 264 261 262 267 263 267 264 258 241 230 251
285 287 294 297 291 292 295 295 298 308 309 311 311 310 306 298 298 301 300 300 298 295 294 294 292 293 292 293 292 285 274 278 261 272 270 259 263 262 269 269 266 247 239 232 231
286 287 292 293 287 288 290 297 297 298 301 303 307 308 305 300 301 300 299 297 293 288 289 286 287 290 287 287 283 274 267 268 272 269 268 265 259 259 267 267 266 256 250 232 223
286 290 292 291 287 290 296 297 295 295 297 300 303 308 308 305 303 300 298 297 294 290 287 286 286 282 281 279 278 275 275 272 271 266 264 264 258 258 259 263 267 263 255 232 232
288 292 293 290 289 286 288 290 292 293 295 296 298 304 305 303 301 301 301 297 293 290 289 288 291 285 280 279 276 275 272 271 271 264 263 262 259 259 255 258 260 258 248 233 237
289 291 289 285 283 281 283 287 292 294 297 300 300 298 298 299 299 299 298 297 296 295 293 294 294 289 289 285 280 275 274 272 265 261 259 259 260 249 251 248 248 250 239 242 236
291 290 287 284 281 281 283 289 293 294 297 300 300 298 298 298 297 295 291 289 291 290 289 295 293 292 291 286 279 277 267 259 261 254 254 252 260 259 259 251 246 239 240 238 241
287 285 284 283 283 283 285 291 294 294 294 296 296 296 296 294 291 291 288 285 287 290 291 292 292 291 289 288 283 275 263 258 257 255 252 252 251 257 257 256 236 231 230 230 235
283 285 284 282 282 283 287 291 291 292 293 291 292 294 293 294 293 292 290 291 291 293 294 295 294 293 292 288 283 268 265 255 257 253 257 251 251 254 239 243 236 240 239 243 243
278 280 282 283 282 284 286 287 288 289 288 290 291 291 291 292 292 293 294 294 295 297 300 298 296 297 298 279 270 266 247 243 249 254 260 251 247 249 254 249 252 242 240 249 250
278 276 276 276 278 281 283 283 286 287 286 287 287 288 289 289 290 293 293 295 298 298 302 303 301 300 293 272 290 279 237 245 249 250 250 240 248 250 245 244 241 245 250 253 257
282 280 274 272 274 276 277 278 283 284 283 284 284 285 288 291 293 295 297 300 300 303 305 304 303 301 287 297 312 289 245 254 250 251 254 253 251 251 249 250 243 244 247 247 252
277 277 276 274 273 273 274 277 280 280 280 282 283 284 287 290 292 296 300 300 303 305 304 299 299 297 286 277 254 283 262 247 254 256 255 247 253 259 257 258 244 240 241 248 252
276 274 271 271 271 272 273 275 276 277 279 280 283 283 287 290 294 300 303 304 305 306 302 292 295 288 282 260 285 250 266 235 247 247 249 259 254 260 264 265 251 237 240 239 249
272 273 273 273 273 272 273 275 276 278 278 279 282 283 286 290 296 302 305 304 301 300 296 298 287 285 300 274 277 238 280 267 245 241 244 245 252 258 267 248 254 251 247 251 249
270 269 270 271 273 273 274 275 275 275 276 278 280 284 288 293 298 304 305 301 295 292 292 294 286 277 273 241 246 277 259 288 281 295 268 204 238 262 237 247 251 242 237 244 235
266 265 266 270 272 272 272 272 272 272 274 277 282 284 288 295 302 305 302 305 303 290 282 286 290 279 275 279 272 261 265 265 276 291 284 257 313 250 250 242 232 235 253 244 236
265 263 264 264 268 268 268 269 269 270 272 278 281 283 286 294 301 300 299 301 299 278 282 286 298 283 275 283 276 270 253 253 275 273 278 282 294 249 233 227 218 217 228 241 240
265 264 264 262 263 264 266 266 267 270 274 277 278 279 286 295 301 298 299 299 299 287 266 285 288 291 283 281 274 263 270 265 261 262 269 277 277 275 227 226 228 223 234 245 246